"Time","Value","Approval","myLocation"
"2023-05-23 17:00",42.046,"Approved","OW415"
"2023-05-23 18:00",42.0740173245614,"Approved","OW415"
"2023-05-23 19:00",42.0730346491228,"Approved","OW415"
"2023-05-23 20:00",42.0720519736842,"Approved","OW415"
"2023-05-23 21:00",42.0760692982456,"Approved","OW415"
"2023-05-23 22:00",42.077086622807,"Approved","OW415"
"2023-05-23 23:00",42.0831039473684,"Approved","OW415"
"2023-05-24 00:00",42.0951212719298,"Approved","OW415"
"2023-05-24 01:00",42.0961385964912,"Approved","OW415"
"2023-05-24 02:00",42.0901559210526,"Approved","OW415"
"2023-05-24 03:00",42.082173245614,"Approved","OW415"
"2023-05-24 04:00",42.0841905701754,"Approved","OW415"
"2023-05-24 05:00",42.0712078947368,"Approved","OW415"
"2023-05-24 06:00",42.0652252192982,"Approved","OW415"
"2023-05-24 07:00",42.0582425438596,"Approved","OW415"
"2023-05-24 08:00",42.0582598684211,"Approved","OW415"
"2023-05-24 09:00",42.0542771929825,"Approved","OW415"
"2023-05-24 10:00",42.0442945175439,"Approved","OW415"
"2023-05-24 11:00",42.0423118421053,"Approved","OW415"
"2023-05-24 12:00",42.0463291666667,"Approved","OW415"
"2023-05-24 13:00",42.0423464912281,"Approved","OW415"
"2023-05-24 14:00",42.0553638157895,"Approved","OW415"
"2023-05-24 15:00",42.0503811403509,"Approved","OW415"
"2023-05-24 16:00",42.0533984649123,"Approved","OW415"
"2023-05-24 17:00",42.0624157894737,"Approved","OW415"
"2023-05-24 18:00",42.0624331140351,"Approved","OW415"
"2023-05-24 19:00",42.0764504385965,"Approved","OW415"
"2023-05-24 20:00",42.0684677631579,"Approved","OW415"
"2023-05-24 21:00",42.0654850877193,"Approved","OW415"
"2023-05-24 22:00",42.0675024122807,"Approved","OW415"
"2023-05-24 23:00",42.0585197368421,"Approved","OW415"
"2023-05-25 00:00",42.0525370614035,"Approved","OW415"
"2023-05-25 01:00",42.0605543859649,"Approved","OW415"
"2023-05-25 02:00",42.0595717105263,"Approved","OW415"
"2023-05-25 03:00",42.0635890350877,"Approved","OW415"
"2023-05-25 04:00",42.0676063596491,"Approved","OW415"
"2023-05-25 05:00",42.0786236842105,"Approved","OW415"
"2023-05-25 06:00",42.0666410087719,"Approved","OW415"
"2023-05-25 07:00",42.0616583333333,"Approved","OW415"
"2023-05-25 08:00",42.0676756578947,"Approved","OW415"
"2023-05-25 09:00",42.0706929824561,"Approved","OW415"
"2023-05-25 10:00",42.0647103070175,"Approved","OW415"
"2023-05-25 11:00",42.0667276315789,"Approved","OW415"
"2023-05-25 12:00",42.0737449561404,"Approved","OW415"
"2023-05-25 13:00",42.0597622807018,"Approved","OW415"
"2023-05-25 14:00",42.0587796052632,"Approved","OW415"
"2023-05-25 15:00",42.0747969298246,"Approved","OW415"
"2023-05-25 16:00",42.067814254386,"Approved","OW415"
"2023-05-25 17:00",42.0808315789474,"Approved","OW415"
"2023-05-25 18:00",42.0808489035088,"Approved","OW415"
"2023-05-25 19:00",42.0888662280702,"Approved","OW415"
"2023-05-25 20:00",42.0868835526316,"Approved","OW415"
"2023-05-25 21:00",42.087900877193,"Approved","OW415"
"2023-05-25 22:00",42.0969182017544,"Approved","OW415"
"2023-05-25 23:00",42.0949355263158,"Approved","OW415"
"2023-05-26 00:00",42.0969528508772,"Approved","OW415"
"2023-05-26 01:00",42.0859701754386,"Approved","OW415"
"2023-05-26 02:00",42.0999875,"Approved","OW415"
"2023-05-26 03:00",42.1010048245614,"Approved","OW415"
"2023-05-26 04:00",42.1010221491228,"Approved","OW415"
"2023-05-26 05:00",42.0980394736842,"Approved","OW415"
"2023-05-26 06:00",42.0900567982456,"Approved","OW415"
"2023-05-26 07:00",42.081074122807,"Approved","OW415"
"2023-05-26 08:00",42.0870914473684,"Approved","OW415"
"2023-05-26 09:00",42.0771087719298,"Approved","OW415"
"2023-05-26 10:00",42.0721260964912,"Approved","OW415"
"2023-05-26 11:00",42.0651434210526,"Approved","OW415"
"2023-05-26 12:00",42.081160745614,"Approved","OW415"
"2023-05-26 13:00",42.0731780701754,"Approved","OW415"
"2023-05-26 14:00",42.0671953947368,"Approved","OW415"
"2023-05-26 15:00",42.0832127192982,"Approved","OW415"
"2023-05-26 16:00",42.0922300438597,"Approved","OW415"
"2023-05-26 17:00",42.1042473684211,"Approved","OW415"
"2023-05-26 18:00",42.1062646929824,"Approved","OW415"
"2023-05-26 19:00",42.1172820175439,"Approved","OW415"
"2023-05-26 20:00",42.1372993421053,"Approved","OW415"
"2023-05-26 21:00",42.1333166666667,"Approved","OW415"
"2023-05-26 22:00",42.1303339912281,"Approved","OW415"
"2023-05-26 23:00",42.1253513157895,"Approved","OW415"
"2023-05-27 00:00",42.1393686403509,"Approved","OW415"
"2023-05-27 01:00",42.1373859649123,"Approved","OW415"
"2023-05-27 02:00",42.1504032894737,"Approved","OW415"
"2023-05-27 03:00",42.1614206140351,"Approved","OW415"
"2023-05-27 04:00",42.1694379385965,"Approved","OW415"
"2023-05-27 05:00",42.1714552631579,"Approved","OW415"
"2023-05-27 06:00",42.1594725877193,"Approved","OW415"
"2023-05-27 07:00",42.1494899122807,"Approved","OW415"
"2023-05-27 08:00",42.1465072368421,"Approved","OW415"
"2023-05-27 09:00",42.1405245614035,"Approved","OW415"
"2023-05-27 10:00",42.1335418859649,"Approved","OW415"
"2023-05-27 11:00",42.1295592105263,"Approved","OW415"
"2023-05-27 12:00",42.1275765350877,"Approved","OW415"
"2023-05-27 13:00",42.1285938596491,"Approved","OW415"
"2023-05-27 14:00",42.1306111842105,"Approved","OW415"
"2023-05-27 15:00",42.1406285087719,"Approved","OW415"
"2023-05-27 16:00",42.1596458333333,"Approved","OW415"
"2023-05-27 17:00",42.1526631578947,"Approved","OW415"
"2023-05-27 18:00",42.1746804824561,"Approved","OW415"
"2023-05-27 19:00",42.1736978070175,"Approved","OW415"
"2023-05-27 20:00",42.1947151315789,"Approved","OW415"
"2023-05-27 21:00",42.1927324561404,"Approved","OW415"
"2023-05-27 22:00",42.2037497807018,"Approved","OW415"
"2023-05-27 23:00",42.1997671052632,"Approved","OW415"
"2023-05-28 00:00",42.1987844298246,"Approved","OW415"
"2023-05-28 01:00",42.206801754386,"Approved","OW415"
"2023-05-28 02:00",42.2038190789474,"Approved","OW415"
"2023-05-28 03:00",42.2158364035088,"Approved","OW415"
"2023-05-28 04:00",42.2098537280702,"Approved","OW415"
"2023-05-28 05:00",42.1988710526316,"Approved","OW415"
"2023-05-28 06:00",42.201888377193,"Approved","OW415"
"2023-05-28 07:00",42.1909057017544,"Approved","OW415"
"2023-05-28 08:00",42.1849230263158,"Approved","OW415"
"2023-05-28 09:00",42.1789403508772,"Approved","OW415"
"2023-05-28 10:00",42.1769576754386,"Approved","OW415"
"2023-05-28 11:00",42.175975,"Approved","OW415"
"2023-05-28 12:00",42.1809923245614,"Approved","OW415"
"2023-05-28 13:00",42.1810096491228,"Approved","OW415"
"2023-05-28 14:00",42.1790269736842,"Approved","OW415"
"2023-05-28 15:00",42.1820442982456,"Approved","OW415"
"2023-05-28 16:00",42.196061622807,"Approved","OW415"
"2023-05-28 17:00",42.1910789473684,"Approved","OW415"
"2023-05-28 18:00",42.2090962719298,"Approved","OW415"
"2023-05-28 19:00",42.1991135964912,"Approved","OW415"
"2023-05-28 20:00",42.2071309210526,"Approved","OW415"
"2023-05-28 21:00",42.196148245614,"Approved","OW415"
"2023-05-28 22:00",42.2031655701754,"Approved","OW415"
"2023-05-28 23:00",42.1961828947368,"Approved","OW415"
"2023-05-29 00:00",42.1912002192982,"Approved","OW415"
"2023-05-29 01:00",42.2002175438597,"Approved","OW415"
"2023-05-29 02:00",42.1932348684211,"Approved","OW415"
"2023-05-29 03:00",42.2082521929825,"Approved","OW415"
"2023-05-29 04:00",42.2072695175439,"Approved","OW415"
"2023-05-29 05:00",42.2072868421053,"Approved","OW415"
"2023-05-29 06:00",42.1943041666667,"Approved","OW415"
"2023-05-29 07:00",42.1843214912281,"Approved","OW415"
"2023-05-29 08:00",42.1833388157895,"Approved","OW415"
"2023-05-29 09:00",42.1763561403509,"Approved","OW415"
"2023-05-29 10:00",42.1693734649123,"Approved","OW415"
"2023-05-29 11:00",42.1663907894737,"Approved","OW415"
"2023-05-29 12:00",42.1744081140351,"Approved","OW415"
"2023-05-29 13:00",42.1864254385965,"Approved","OW415"
"2023-05-29 14:00",42.1724427631579,"Approved","OW415"
"2023-05-29 15:00",42.1834600877193,"Approved","OW415"
"2023-05-29 16:00",42.1784774122807,"Approved","OW415"
"2023-05-29 17:00",42.1854947368421,"Approved","OW415"
"2023-05-29 18:00",42.1785120614035,"Approved","OW415"
"2023-05-29 19:00",42.1705293859649,"Approved","OW415"
"2023-05-29 20:00",42.1885467105263,"Approved","OW415"
"2023-05-29 21:00",42.1895640350877,"Approved","OW415"
"2023-05-29 22:00",42.1985813596491,"Approved","OW415"
"2023-05-29 23:00",42.2135986842105,"Approved","OW415"
"2023-05-30 00:00",42.2056160087719,"Approved","OW415"
"2023-05-30 01:00",42.2176333333333,"Approved","OW415"
"2023-05-30 02:00",42.2156506578947,"Approved","OW415"
"2023-05-30 03:00",42.2246679824561,"Approved","OW415"
"2023-05-30 04:00",42.2206853070175,"Approved","OW415"
"2023-05-30 05:00",42.205702631579,"Approved","OW415"
"2023-05-30 06:00",42.2017199561404,"Approved","OW415"
"2023-05-30 07:00",42.1907372807018,"Approved","OW415"
"2023-05-30 08:00",42.1847546052632,"Approved","OW415"
"2023-05-30 09:00",42.1837719298246,"Approved","OW415"
"2023-05-30 10:00",42.183789254386,"Approved","OW415"
"2023-05-30 11:00",42.1858065789474,"Approved","OW415"
"2023-05-30 12:00",42.1918239035088,"Approved","OW415"
"2023-05-30 13:00",42.1878412280702,"Approved","OW415"
"2023-05-30 14:00",42.1998585526316,"Approved","OW415"
"2023-05-30 15:00",42.204875877193,"Approved","OW415"
"2023-05-30 16:00",42.2148932017544,"Approved","OW415"
"2023-05-30 17:00",42.2319105263158,"Approved","OW415"
"2023-05-30 18:00",42.2429278508772,"Approved","OW415"
"2023-05-30 19:00",42.2529451754386,"Approved","OW415"
"2023-05-30 20:00",42.2709625,"Approved","OW415"
"2023-05-30 21:00",42.2679798245614,"Approved","OW415"
"2023-05-30 22:00",42.2669971491228,"Approved","OW415"
"2023-05-30 23:00",42.2800144736842,"Approved","OW415"
"2023-05-31 00:00",42.2720317982456,"Approved","OW415"
"2023-05-31 01:00",42.270049122807,"Approved","OW415"
"2023-05-31 02:00",42.2900664473684,"Approved","OW415"
"2023-05-31 03:00",42.2810837719298,"Approved","OW415"
"2023-05-31 04:00",42.2921010964912,"Approved","OW415"
"2023-05-31 05:00",42.2801184210526,"Approved","OW415"
"2023-05-31 06:00",42.274135745614,"Approved","OW415"
"2023-05-31 07:00",42.2651530701754,"Approved","OW415"
"2023-05-31 08:00",42.2641703947368,"Approved","OW415"
"2023-05-31 09:00",42.2601877192982,"Approved","OW415"
"2023-05-31 10:00",42.2562050438597,"Approved","OW415"
"2023-05-31 11:00",42.251222368421,"Approved","OW415"
"2023-05-31 12:00",42.2542396929825,"Approved","OW415"
"2023-05-31 13:00",42.2582570175439,"Approved","OW415"
"2023-05-31 14:00",42.2552743421053,"Approved","OW415"
"2023-05-31 15:00",42.2742916666667,"Approved","OW415"
"2023-05-31 16:00",42.2753089912281,"Approved","OW415"
"2023-05-31 17:00",42.2793263157895,"Approved","OW415"
"2023-05-31 18:00",42.2963436403509,"Approved","OW415"
"2023-05-31 19:00",42.2903609649123,"Approved","OW415"
"2023-05-31 20:00",42.2883782894737,"Approved","OW415"
"2023-05-31 21:00",42.2973956140351,"Approved","OW415"
"2023-05-31 22:00",42.2914129385965,"Approved","OW415"
"2023-05-31 23:00",42.2894302631579,"Approved","OW415"
"2023-06-01 00:00",42.2914475877193,"Approved","OW415"
"2023-06-01 01:00",42.2924649122807,"Approved","OW415"
"2023-06-01 02:00",42.2904822368421,"Approved","OW415"
"2023-06-01 03:00",42.2994995614035,"Approved","OW415"
"2023-06-01 04:00",42.2965168859649,"Approved","OW415"
"2023-06-01 05:00",42.2945342105263,"Approved","OW415"
"2023-06-01 06:00",42.2945515350877,"Approved","OW415"
"2023-06-01 07:00",42.2885688596491,"Approved","OW415"
"2023-06-01 08:00",42.2945861842105,"Approved","OW415"
"2023-06-01 09:00",42.2856035087719,"Approved","OW415"
"2023-06-01 10:00",42.2896208333333,"Approved","OW415"
"2023-06-01 11:00",42.2896381578947,"Approved","OW415"
"2023-06-01 12:00",42.2956554824561,"Approved","OW415"
"2023-06-01 13:00",42.2856728070175,"Approved","OW415"
"2023-06-01 14:00",42.2856901315789,"Approved","OW415"
"2023-06-01 15:00",42.3037074561404,"Approved","OW415"
"2023-06-01 16:00",42.3177247807018,"Approved","OW415"
"2023-06-01 17:00",42.3217421052632,"Approved","OW415"
"2023-06-01 18:00",42.3297594298246,"Approved","OW415"
"2023-06-01 19:00",42.319776754386,"Approved","OW415"
"2023-06-01 20:00",42.3157940789474,"Approved","OW415"
"2023-06-01 21:00",42.3068114035088,"Approved","OW415"
"2023-06-01 22:00",42.3128287280702,"Approved","OW415"
"2023-06-01 23:00",42.3028460526316,"Approved","OW415"
"2023-06-02 00:00",42.307863377193,"Approved","OW415"
"2023-06-02 01:00",42.3068807017544,"Approved","OW415"
"2023-06-02 02:00",42.2998980263158,"Approved","OW415"
"2023-06-02 03:00",42.3109153508772,"Approved","OW415"
"2023-06-02 04:00",42.3069326754386,"Approved","OW415"
"2023-06-02 05:00",42.31395,"Approved","OW415"
"2023-06-02 06:00",42.2969673245614,"Approved","OW415"
"2023-06-02 07:00",42.2869846491228,"Approved","OW415"
"2023-06-02 08:00",42.2780019736842,"Approved","OW415"
"2023-06-02 09:00",42.2670192982456,"Approved","OW415"
"2023-06-02 10:00",42.261036622807,"Approved","OW415"
"2023-06-02 11:00",42.2600539473684,"Approved","OW415"
"2023-06-02 12:00",42.2600712719298,"Approved","OW415"
"2023-06-02 13:00",42.2680885964912,"Approved","OW415"
"2023-06-02 14:00",42.2671059210526,"Approved","OW415"
"2023-06-02 15:00",42.284123245614,"Approved","OW415"
"2023-06-02 16:00",42.3021405701754,"Approved","OW415"
"2023-06-02 17:00",42.3081578947368,"Approved","OW415"
"2023-06-02 18:00",42.3231752192982,"Approved","OW415"
"2023-06-02 19:00",42.3161925438596,"Approved","OW415"
"2023-06-02 20:00",42.3182098684211,"Approved","OW415"
"2023-06-02 21:00",42.3062271929825,"Approved","OW415"
"2023-06-02 22:00",42.2992445175439,"Approved","OW415"
"2023-06-02 23:00",42.3042618421053,"Approved","OW415"
"2023-06-03 00:00",42.2972791666667,"Approved","OW415"
"2023-06-03 01:00",42.3082964912281,"Approved","OW415"
"2023-06-03 02:00",42.3083138157895,"Approved","OW415"
"2023-06-03 03:00",42.3183311403509,"Approved","OW415"
"2023-06-03 04:00",42.3183484649123,"Approved","OW415"
"2023-06-03 05:00",42.3163657894737,"Approved","OW415"
"2023-06-03 06:00",42.3223831140351,"Approved","OW415"
"2023-06-03 07:00",42.3104004385965,"Approved","OW415"
"2023-06-03 08:00",42.3084177631579,"Approved","OW415"
"2023-06-03 09:00",42.3084350877193,"Approved","OW415"
"2023-06-03 10:00",42.3044524122807,"Approved","OW415"
"2023-06-03 11:00",42.2964697368421,"Approved","OW415"
"2023-06-03 12:00",42.3004870614035,"Approved","OW415"
"2023-06-03 13:00",42.2925043859649,"Approved","OW415"
"2023-06-03 14:00",42.3015217105263,"Approved","OW415"
"2023-06-03 15:00",42.3075390350877,"Approved","OW415"
"2023-06-03 16:00",42.3095563596491,"Approved","OW415"
"2023-06-03 17:00",42.3295736842105,"Approved","OW415"
"2023-06-03 18:00",42.3405910087719,"Approved","OW415"
"2023-06-03 19:00",42.3656083333333,"Approved","OW415"
"2023-06-03 20:00",42.3566256578947,"Approved","OW415"
"2023-06-03 21:00",42.3656429824561,"Approved","OW415"
"2023-06-03 22:00",42.3586603070175,"Approved","OW415"
"2023-06-03 23:00",42.3616776315789,"Approved","OW415"
"2023-06-04 00:00",42.3726949561404,"Approved","OW415"
"2023-06-04 01:00",42.3607122807018,"Approved","OW415"
"2023-06-04 02:00",42.3687296052632,"Approved","OW415"
"2023-06-04 03:00",42.3577469298246,"Approved","OW415"
"2023-06-04 04:00",42.355764254386,"Approved","OW415"
"2023-06-04 05:00",42.3527815789474,"Approved","OW415"
"2023-06-04 06:00",42.3417989035088,"Approved","OW415"
"2023-06-04 07:00",42.3338162280702,"Approved","OW415"
"2023-06-04 08:00",42.3338335526316,"Approved","OW415"
"2023-06-04 09:00",42.332850877193,"Approved","OW415"
"2023-06-04 10:00",42.3338682017544,"Approved","OW415"
"2023-06-04 11:00",42.3268855263158,"Approved","OW415"
"2023-06-04 12:00",42.3329028508772,"Approved","OW415"
"2023-06-04 13:00",42.3279201754386,"Approved","OW415"
"2023-06-04 14:00",42.3439375,"Approved","OW415"
"2023-06-04 15:00",42.3469548245614,"Approved","OW415"
"2023-06-04 16:00",42.3639721491228,"Approved","OW415"
"2023-06-04 17:00",42.3519894736842,"Approved","OW415"
"2023-06-04 18:00",42.3710067982456,"Approved","OW415"
"2023-06-04 19:00",42.379024122807,"Approved","OW415"
"2023-06-04 20:00",42.3730414473684,"Approved","OW415"
"2023-06-04 21:00",42.3880587719298,"Approved","OW415"
"2023-06-04 22:00",42.3810760964912,"Approved","OW415"
"2023-06-04 23:00",42.3810934210526,"Approved","OW415"
"2023-06-05 00:00",42.368110745614,"Approved","OW415"
"2023-06-05 01:00",42.3611280701754,"Approved","OW415"
"2023-06-05 02:00",42.3701453947368,"Approved","OW415"
"2023-06-05 03:00",42.3621627192982,"Approved","OW415"
"2023-06-05 04:00",42.3801800438596,"Approved","OW415"
"2023-06-05 05:00",42.3641973684211,"Approved","OW415"
"2023-06-05 06:00",42.3552146929825,"Approved","OW415"
"2023-06-05 07:00",42.3472320175439,"Approved","OW415"
"2023-06-05 08:00",42.3492493421053,"Approved","OW415"
"2023-06-05 09:00",42.3482666666667,"Approved","OW415"
"2023-06-05 10:00",42.3422839912281,"Approved","OW415"
"2023-06-05 11:00",42.3383013157895,"Approved","OW415"
"2023-06-05 12:00",42.3463186403509,"Approved","OW415"
"2023-06-05 13:00",42.3513359649123,"Approved","OW415"
"2023-06-05 14:00",42.3413532894737,"Approved","OW415"
"2023-06-05 15:00",42.3623706140351,"Approved","OW415"
"2023-06-05 16:00",42.3623879385965,"Approved","OW415"
"2023-06-05 17:00",42.3694052631579,"Approved","OW415"
"2023-06-05 18:00",42.3784225877193,"Approved","OW415"
"2023-06-05 19:00",42.3764399122807,"Approved","OW415"
"2023-06-05 20:00",42.3864572368421,"Approved","OW415"
"2023-06-05 21:00",42.3834745614035,"Approved","OW415"
"2023-06-05 22:00",42.3944918859649,"Approved","OW415"
"2023-06-05 23:00",42.3885092105263,"Approved","OW415"
"2023-06-06 00:00",42.3865265350877,"Approved","OW415"
"2023-06-06 01:00",42.3875438596491,"Approved","OW415"
"2023-06-06 02:00",42.3805611842105,"Approved","OW415"
"2023-06-06 03:00",42.3865785087719,"Approved","OW415"
"2023-06-06 04:00",42.3805958333333,"Approved","OW415"
"2023-06-06 05:00",42.3926131578947,"Approved","OW415"
"2023-06-06 06:00",42.3696304824561,"Approved","OW415"
"2023-06-06 07:00",42.3566478070175,"Approved","OW415"
"2023-06-06 08:00",42.348665131579,"Approved","OW415"
"2023-06-06 09:00",42.3426824561404,"Approved","OW415"
"2023-06-06 10:00",42.3386997807018,"Approved","OW415"
"2023-06-06 11:00",42.3367171052632,"Approved","OW415"
"2023-06-06 12:00",42.3387344298246,"Approved","OW415"
"2023-06-06 13:00",42.328751754386,"Approved","OW415"
"2023-06-06 14:00",42.3257690789474,"Approved","OW415"
"2023-06-06 15:00",42.3267864035088,"Approved","OW415"
"2023-06-06 16:00",42.3428037280702,"Approved","OW415"
"2023-06-06 17:00",42.3438210526316,"Approved","OW415"
"2023-06-06 18:00",42.357838377193,"Approved","OW415"
"2023-06-06 19:00",42.3708557017544,"Approved","OW415"
"2023-06-06 20:00",42.3618730263158,"Approved","OW415"
"2023-06-06 21:00",42.3698903508772,"Approved","OW415"
"2023-06-06 22:00",42.3649076754386,"Approved","OW415"
"2023-06-06 23:00",42.364925,"Approved","OW415"
"2023-06-07 00:00",42.3589423245614,"Approved","OW415"
"2023-06-07 01:00",42.3509596491228,"Approved","OW415"
"2023-06-07 02:00",42.3599769736842,"Approved","OW415"
"2023-06-07 03:00",42.3599942982456,"Approved","OW415"
"2023-06-07 04:00",42.363011622807,"Approved","OW415"
"2023-06-07 05:00",42.3600289473684,"Approved","OW415"
"2023-06-07 06:00",42.3550462719298,"Approved","OW415"
"2023-06-07 07:00",42.3500635964912,"Approved","OW415"
"2023-06-07 08:00",42.3610809210526,"Approved","OW415"
"2023-06-07 09:00",42.352098245614,"Approved","OW415"
"2023-06-07 10:00",42.3481155701754,"Approved","OW415"
"2023-06-07 11:00",42.3391328947368,"Approved","OW415"
"2023-06-07 12:00",42.3451502192982,"Approved","OW415"
"2023-06-07 13:00",42.3421675438596,"Approved","OW415"
"2023-06-07 14:00",42.3451848684211,"Approved","OW415"
"2023-06-07 15:00",42.3502021929825,"Approved","OW415"
"2023-06-07 16:00",42.3572195175439,"Approved","OW415"
"2023-06-07 17:00",42.3662368421053,"Approved","OW415"
"2023-06-07 18:00",42.3742541666667,"Approved","OW415"
"2023-06-07 19:00",42.3852714912281,"Approved","OW415"
"2023-06-07 20:00",42.3812888157895,"Approved","OW415"
"2023-06-07 21:00",42.3843061403509,"Approved","OW415"
"2023-06-07 22:00",42.3813234649123,"Approved","OW415"
"2023-06-07 23:00",42.3803407894737,"Approved","OW415"
"2023-06-08 00:00",42.3883581140351,"Approved","OW415"
"2023-06-08 01:00",42.3713754385965,"Approved","OW415"
"2023-06-08 02:00",42.3793927631579,"Approved","OW415"
"2023-06-08 03:00",42.3874100877193,"Approved","OW415"
"2023-06-08 04:00",42.3844274122807,"Approved","OW415"
"2023-06-08 05:00",42.4024447368421,"Approved","OW415"
"2023-06-08 06:00",42.3924620614035,"Approved","OW415"
"2023-06-08 07:00",42.3844793859649,"Approved","OW415"
"2023-06-08 08:00",42.3824967105263,"Approved","OW415"
"2023-06-08 09:00",42.3955140350877,"Approved","OW415"
"2023-06-08 10:00",42.3895313596491,"Approved","OW415"
"2023-06-08 11:00",42.3905486842105,"Approved","OW415"
"2023-06-08 12:00",42.3905660087719,"Approved","OW415"
"2023-06-08 13:00",42.3905833333333,"Approved","OW415"
"2023-06-08 14:00",42.3906006578947,"Approved","OW415"
"2023-06-08 15:00",42.4066179824561,"Approved","OW415"
"2023-06-08 16:00",42.4036353070175,"Approved","OW415"
"2023-06-08 17:00",42.4006526315789,"Approved","OW415"
"2023-06-08 18:00",42.4116699561404,"Approved","OW415"
"2023-06-08 19:00",42.4026872807018,"Approved","OW415"
"2023-06-08 20:00",42.4167046052632,"Approved","OW415"
"2023-06-08 21:00",42.4177219298246,"Approved","OW415"
"2023-06-08 22:00",42.417739254386,"Approved","OW415"
"2023-06-08 23:00",42.4287565789474,"Approved","OW415"
"2023-06-09 00:00",42.4167739035088,"Approved","OW415"
"2023-06-09 01:00",42.4197912280702,"Approved","OW415"
"2023-06-09 02:00",42.4078085526316,"Approved","OW415"
"2023-06-09 03:00",42.416825877193,"Approved","OW415"
"2023-06-09 04:00",42.4178432017544,"Approved","OW415"
"2023-06-09 05:00",42.4058605263158,"Approved","OW415"
"2023-06-09 06:00",42.4068778508772,"Approved","OW415"
"2023-06-09 07:00",42.3918951754386,"Approved","OW415"
"2023-06-09 08:00",42.3869125,"Approved","OW415"
"2023-06-09 09:00",42.3949298245614,"Approved","OW415"
"2023-06-09 10:00",42.3819471491228,"Approved","OW415"
"2023-06-09 11:00",42.3759644736842,"Approved","OW415"
"2023-06-09 12:00",42.3919817982456,"Approved","OW415"
"2023-06-09 13:00",42.384999122807,"Approved","OW415"
"2023-06-09 14:00",42.3810164473684,"Approved","OW415"
"2023-06-09 15:00",42.3930337719298,"Approved","OW415"
"2023-06-09 16:00",42.3880510964912,"Approved","OW415"
"2023-06-09 17:00",42.4030684210526,"Approved","OW415"
"2023-06-09 18:00",42.406085745614,"Approved","OW415"
"2023-06-09 19:00",42.4131030701754,"Approved","OW415"
"2023-06-09 20:00",42.4201203947368,"Approved","OW415"
"2023-06-09 21:00",42.4181377192982,"Approved","OW415"
"2023-06-09 22:00",42.4121550438596,"Approved","OW415"
"2023-06-09 23:00",42.4181723684211,"Approved","OW415"
"2023-06-10 00:00",42.4031896929825,"Approved","OW415"
"2023-06-10 01:00",42.3962070175439,"Approved","OW415"
"2023-06-10 02:00",42.4042243421053,"Approved","OW415"
"2023-06-10 03:00",42.4022416666667,"Approved","OW415"
"2023-06-10 04:00",42.3972589912281,"Approved","OW415"
"2023-06-10 05:00",42.4052763157895,"Approved","OW415"
"2023-06-10 06:00",42.3972936403509,"Approved","OW415"
"2023-06-10 07:00",42.3903109649123,"Approved","OW415"
"2023-06-10 08:00",42.3853282894737,"Approved","OW415"
"2023-06-10 09:00",42.3853456140351,"Approved","OW415"
"2023-06-10 10:00",42.3843629385965,"Approved","OW415"
"2023-06-10 11:00",42.3763802631579,"Approved","OW415"
"2023-06-10 12:00",42.3753975877193,"Approved","OW415"
"2023-06-10 13:00",42.3674149122807,"Approved","OW415"